Regional Weather Roundup
Issued by NWS

Home | Current Version | Previous Version | Text Only | Print | Product List | Glossary Off
Versions: 1 2 3 4 5 6 7 8 9 10 11 12 13 14 15 16 17 18 19 20 21 22 23 24 25 26 27 28 29 30 31 32 33 34 35 36 37 38 39 40 41 42 43 44 45 46 47 48 49 50

000
ASUS45 KABQ 252110
RWRNM
NEW MEXICO REGIONAL WEATHER ROUNDUP
NATIONAL WEATHER SERVICE ALBUQUERQUE NM
300 PM MDT SUN JUN 25 2017

NOTE: "FAIR" MEANS FEW OR NO CLOUDS BELOW 12,000 FEET AGL WITH NO
       SIGNIFICANT WEATHER OR OBSTRUCTIONS TO VISION.

      THIS PRODUCT IS RELEASED AS TWO VERSIONS.  ONE VERSION NEAR
      THE TOP OF THE HOUR CONTAINING PRELIMINARY DATA FROM ALBUQUERQUE
      AND OTHER STATIONS.  A FINAL VERSION WITH ADDITIONAL DATA IS
      ISSUED ABOUT 10 MINUTES AFTER THE HOUR.

NMZ501-503-504-510>518-252200-
NORTHWEST PLATEAU/NORTHCENTRAL MOUNTAINS

CITY           SKY/WX    TMP DP  RH WIND       PRES   REMARKS
FARMINGTON     FAIR      92  30  11 SW5       30.16F
LOS ALAMOS     FAIR      80  46  30 S10       30.33F
SANTA FE       FAIR      86  47  25 SW9       30.27F
TAOS           FAIR      82  45  26 SW13G20   30.32
ANGEL FIRE     FAIR      74  42  31 W12G23    30.42F

$$
NMZ402-403-502-505>509-252200-
WESTCENTRAL MOUNTAINS/SOUTHWEST MOUNTAINS

CITY           SKY/WX    TMP DP  RH WIND       PRES   REMARKS
GALLUP         FAIR      92  32  12 W16G28    30.24F
GRANTS         FAIR      79  51  38 SE8       30.27F
SILVER CITY    FAIR      85  52  32 SE14      30.26F

$$
NMZ407-409-411-412-252200-
SOUTHERN DESERTS

CITY           SKY/WX    TMP DP  RH WIND       PRES   REMARKS
DEMING         FAIR      93  52  24 S10G16    30.17F
LAS CRUCES     FAIR      92  51  24 S3G17     30.18F
HOLLOMAN AFB   FAIR      93  55  27 S13G21    30.15F
ALAMOGORDO     FAIR      93  54  26 S10G23    30.16F
T OR C         FAIR      91  49  23 S13G21    30.17F

$$
NMZ519>523-252200-
CENTRAL VALLEYS/CENTRAL HIGHLANDS

CITY           SKY/WX    TMP DP  RH WIND       PRES   REMARKS
ALBUQUERQUE    PTSUNNY   90  47  22 NE5       30.19F
DOUBLE EAGLE   PTSUNNY   84  52  32 SE9       30.24F
MORIARTY ARPT  FAIR      91  48  22 S15G21    30.27F
CLINES CORNERS PTSUNNY   82  51  34 S17G25    30.34F
BELEN          FAIR      90  44  20 S12G22    30.18F
SOCORRO        FAIR      90  46  21 S17G23    30.17F

$$
NMZ524>526-539-540-252200-
SOUTHCENTRAL MOUNTAINS

CITY           SKY/WX    TMP DP  RH WIND       PRES   REMARKS
RUIDOSO        FAIR      73  55  53 SE16      30.39F

$$
NMZ527>531-252200-
NORTHEAST HIGHLANDS/NORTHEAST PLAINS

CITY           SKY/WX    TMP DP  RH WIND       PRES   REMARKS
LAS VEGAS      FAIR      76  54  46 S20G43    30.31F
RATON          PTSUNNY   81  56  42 S15G21    30.28F
CLAYTON        PTSUNNY   75  63  66 S15       30.27F

$$
NMZ532>537-252200-
EASTCENTRAL PLAINS

CITY           SKY/WX    TMP DP  RH WIND       PRES   REMARKS
SANTA ROSA     FAIR      82  60  46 SE18G25   30.23F
TUCUMCARI      FAIR      82  65  56 S16G30    30.21F
CANNON AFB     CLOUDY    78  65  63 S10       30.28F
CLOVIS AIRPORT FAIR      81  64  56 S15       30.27F

$$
NMZ028-029-538-252200-
SOUTHEAST PLAINS

CITY           SKY/WX    TMP DP  RH WIND       PRES   REMARKS
ROSWELL        FAIR      90  59  35 SE17G24   30.17F
ARTESIA        FAIR      90  59  35 SE15G23   30.17F
CARLSBAD       FAIR      88  60  38 SE13      30.16F
HOBBS          PTSUNNY   86  57  37 SE9G21    30.21F


$$




USA.gov is the U.S. government's official web portal to all federal, state and local government web resources and services.